Dallas/Ft Worth, TX

4:36 PM CDT on April 20, 2018 (GMT -0500)
Dallas-Fort Worth International

Weather History for KDFW - November, 2012

Change the Weather History Date:

Friday, November 9, 2012

  Actual Average Record
Temperature  
Mean Temperature 75 °F 59 °F  
Max Temperature 84 °F 70 °F 88 °F (2005)
Min Temperature 65 °F 49 °F 28 °F (1991)
Degree Days  
Heating Degree Days 0 7  
Month to date heating degree days 8 54  
Since 1 July heating degree days 106 126  
Cooling Degree Days 10 1  
Month to date cooling degree days 30 17  
Year to date cooling degree days 3313 2740  
Growing Degree Days 24 (Base 50)    
Moisture  
Dew Point 57 °F    
Average Humidity 61    
Maximum Humidity 84    
Minimum Humidity 37    
Precipitation  
Precipitation 0.00 in 0.10 in 2.68 in (1937)
Month to date precipitation 0.00 0.99  
Year to date precipitation 29.26 31.87  
Snow  
Snow 0.00 in 0.00 in T in (1948)
Month to date snowfall 0.0 0.0  
Since 1 July snowfall 0.0 0.0  
Since 1 September snowfall 0.0 0.0  
Snow Depth 0.00 in    
Sea Level Pressure  
Sea Level Pressure 29.96 in    
Wind  
Wind Speed 20 mph (South)    
Max Wind Speed 38 mph    
Max Gust Speed 44 mph    
Visibility 10 miles    
Events      
T = Trace of Precipitation, MM = Missing Value Source: NWS Daily Summary

Daily Weather History Graph

Daily Weather History Graph

Search for Another Location

Airport or City:

Astronomy

Nov. 09, 2012 Rise Set
Actual Time 6:53 AM CST 5:30 PM CST
Civil Twilight 6:27 AM CST 5:56 PM CST
Nautical Twilight 5:58 AM CST 6:25 PM CST
Astronomical Twilight 5:28 AM CST 6:54 PM CST
Moon 2:08 AM CST (11/9) 2:31 PM CST (11/9)
Length of Visible Light 11h 28m
Length of Day
10h 36m
Waning Crescent, 23% of the Moon is Illuminated
Nov 9
Waning Crescent
Nov 13
New
Nov 20
First Quarter
Nov 28
Full
Dec 6
Last Quarter

Hourly Weather History & Observations

Time (CST) Temp. Heat Index Dew Point Humidity Pressure Visibility Wind Dir Wind Speed Gust Speed Precip Events Conditions
12:53 AM 69.1 °F - 57.9 °F 68% 29.96 in 10.0 mi South 23.0 mph 31.1 mph N/A   Mostly Cloudy
1:53 AM 68.0 °F - 57.9 °F 70% 29.96 in 10.0 mi South 21.9 mph 26.5 mph N/A   Mostly Cloudy
2:53 AM 66.9 °F - 57.9 °F 73% 29.97 in 10.0 mi South 16.1 mph - N/A   Mostly Cloudy
3:27 AM 66.2 °F - 57.2 °F 73% 29.99 in 10.0 mi South 15.0 mph - N/A   Overcast
3:53 AM 66.9 °F - 57.9 °F 73% 29.97 in 10.0 mi South 17.3 mph - N/A   Mostly Cloudy
4:53 AM 66.9 °F - 59.0 °F 76% 29.97 in 10.0 mi South 19.6 mph 25.3 mph N/A   Mostly Cloudy
5:14 AM 66.2 °F - 57.2 °F 73% 29.99 in 10.0 mi South 16.1 mph - N/A   Mostly Cloudy
5:53 AM 64.9 °F - 59.0 °F 81% 29.97 in 10.0 mi South 13.8 mph 23.0 mph N/A   Mostly Cloudy
6:53 AM 64.9 °F - 59.0 °F 81% 29.98 in 10.0 mi South 15.0 mph - N/A   Mostly Cloudy
6:59 AM 64.4 °F - 59.0 °F 83% 30.00 in 10.0 mi South 15.0 mph - N/A   Mostly Cloudy
7:53 AM 66.0 °F - 60.1 °F 81% 29.99 in 10.0 mi South 13.8 mph - N/A   Mostly Cloudy
8:53 AM 68.0 °F - 61.0 °F 78% 30.00 in 10.0 mi South 17.3 mph 26.5 mph N/A   Mostly Cloudy
9:12 AM 68.0 °F - 60.8 °F 78% 30.01 in 10.0 mi South 16.1 mph - N/A   Mostly Cloudy
9:53 AM 71.1 °F - 61.0 °F 70% 30.00 in 10.0 mi South 18.4 mph 28.8 mph N/A   Mostly Cloudy
10:53 AM 73.9 °F - 60.1 °F 62% 30.00 in 10.0 mi SSW 31.1 mph 39.1 mph N/A   Mostly Cloudy
11:38 AM 77.0 °F - 60.8 °F 57% 30.01 in 10.0 mi SSW 25.3 mph 35.7 mph N/A   Scattered Clouds
11:53 AM 77.0 °F - 59.0 °F 54% 29.98 in 10.0 mi South 28.8 mph 36.8 mph N/A   Mostly Cloudy
12:53 PM 80.1 °F 80.4 °F 57.0 °F 45% 29.92 in 10.0 mi South 28.8 mph 41.4 mph N/A   Scattered Clouds
1:53 PM 82.0 °F 81.6 °F 55.9 °F 41% 29.90 in 10.0 mi SSW 25.3 mph 36.8 mph N/A   Scattered Clouds
2:53 PM 82.9 °F 81.9 °F 54.0 °F 37% 29.88 in 10.0 mi South 29.9 mph 39.1 mph N/A   Scattered Clouds
3:53 PM 82.0 °F 81.4 °F 55.0 °F 39% 29.88 in 10.0 mi South 24.2 mph 34.5 mph N/A   Scattered Clouds
4:53 PM 81.0 °F 80.7 °F 55.0 °F 41% 29.88 in 10.0 mi South 23.0 mph 32.2 mph N/A   Scattered Clouds
5:53 PM 78.1 °F - 55.0 °F 45% 29.90 in 10.0 mi South 17.3 mph 25.3 mph N/A   Partly Cloudy
6:53 PM 77.0 °F - 55.9 °F 48% 29.91 in 10.0 mi South 13.8 mph - N/A   Partly Cloudy
7:53 PM 75.9 °F - 54.0 °F 46% 29.93 in 10.0 mi South 12.7 mph 21.9 mph N/A   Partly Cloudy
8:53 PM 75.0 °F - 52.0 °F 44% 29.94 in 10.0 mi South 16.1 mph 26.5 mph N/A   Partly Cloudy
9:53 PM 73.9 °F - 51.1 °F 45% 29.95 in 10.0 mi South 16.1 mph 25.3 mph N/A   Partly Cloudy
10:53 PM 72.0 °F - 52.0 °F 49% 29.96 in 10.0 mi South 15.0 mph 21.9 mph N/A   Partly Cloudy
11:53 PM 70.0 °F - 55.9 °F 61% 29.96 in 10.0 mi South 19.6 mph 27.6 mph N/A   Scattered Clouds